User: anonymous   Login
Location: Azul
(36.7830°S, 59.8500°W)
Time: 01:07:01
(UTC-03:00)
Language:

NOAA 15 - Orbit

View from above orbital plane
View from above orbital plane
View from above satellite
View from above satellite

Ground track
Ground track

The orbit data is extracted from the following two-line orbital elements,

1 25338U 98030A   21295.71310236  .00000046  00000-0  37843-4 0  9992
2 25338  98.6722 323.0406 0009297 270.0481  89.9634 14.26064690219384
Epoch (UTC): 22 October 2021 17:06:52
Eccentricity: 0.0009297
inclination: 98.6722°
perigee height: 798 km
apogee height: 811 km
right ascension of ascending node: 323.0406°
argument of perigee: 270.0481°
revolutions per day: 14.26064690
mean anomaly at epoch: 89.9634°
orbit number at epoch: 21938

The dashed part of the orbit path shows where the satellite is in the earth's shadow,  

DLR